GRIFEX
1 40379U 15003D 16196.75029574 .00003515 00000-0 16652-3 0 9991
2 40379 99.0888 307.8903 0148399 42.9426 318.3272 15.10967285 79891
NO-84
1 40654U 15025D 16196.40930619 .00017105 00000-0 35222-3 0 01721
2 40654 054.9997 298.2489 0207915 140.2263 221.4184 15.26236441028194
NO-83
1 40655U 15025E 16196.49265514 .00023783 00000-0 44516-3 0 01901
2 40655 054.9838 290.5759 0188850 143.4836 217.9241 15.31488641028282
DEORBITSAIL
1 40719U 15032E 16195.73591094 .00000765 00000-0 11948-3 0 9996
2 40719 98.0142 87.1318 0017221 146.9596 213.2692 14.75584835 54406
NUDT-PHONESAT
1 40900U 15049B 16196.73639641 .00004882 00000-0 24956-3 0 9995
2 40900 97.4447 203.9767 0013874 327.2628 32.7744 15.17049090 45256
XW-2D
1 40907U 15049J 16196.67237415 .00001896 00000-0 10869-3 0 9998
2 40907 97.4501 203.0254 0013579 305.1117 54.8841 15.13716501 45163
XW-2F
1 40910U 15049M 16196.82975123 .00003235 00000-0 18035-3 0 9996
2 40910 97.4528 203.3956 0014463 302.8792 57.1047 15.14207266 45083
XW-2B
1 40911U 15049N 16196.67217754 .00001853 00000-0 10640-3 0 9997
2 40911 97.4548 203.2144 0013487 305.3686 54.6284 15.13698629 45068
DCBB
1 40912U 15049P 16196.81816178 .00002785 00000-0 14746-3 0 9995
2 40912 97.4534 204.2360 0014697 298.6297 186.1314 15.16159456 45148
TW-1C
1 40926U 15051B 16196.81354632 .00009066 00000-0 25297-3 0 9997
2 40926 97.2733 233.4335 0012226 314.9728 164.3042 15.36892101 45009
TW-1A
1 40928U 15051D 16196.88589441 .00004351 00000-0 13657-3 0 9993
2 40928 97.2683 232.5178 0013134 335.7145 149.8169 15.33473821 44966
IO-86
1 40931U 15052B 16196.70689889 .00000682 00000-0 60820-5 0 9995
2 40931 5.9978 118.9040 0012762 149.8606 210.2267 14.76468409 43008
GomX-3
1 40949U 98067HA 16196.74767593 .00185359 00000-0 87848-3 0 9996
2 40949 51.6290 251.4329 0004682 345.3048 14.8338 15.82210781 44420
LQSat
1 40958U 15057A 16196.75725683 .00000117 00000-0 26012-4 0 9994
2 40958 98.0135 271.2879 0019640 67.5619 292.7664 14.72880025 41440
AO-85
1 40967U 15058D 16196.37765990 .00000249 00000-0 45384-4 0 01887
2 40967 064.7745 163.3826 0201327 196.8598 162.5753 14.75059516027282
ATHENOXAT-1
1 41168U 15077C 16196.91350822 .00003503 00000-0 16892-3 0 9993
2 41168 14.9862 110.7006 0012994 26.7731 51.7114 15.10082283 31955
ChubuSat-2
1 41338U 16012B 16195.88142838 .00000624 00000-0 42836-4 0 9992
2 41338 31.0029 100.3843 0014106 309.8086 50.1314 14.99415326 22160
ChubuSat-3
1 41339U 16012C 16196.79028943 .00000635 00000-0 43451-4 0 9990
2 41339 31.0107 94.3258 0013935 325.0310 34.9417 14.99645739 22278
Horyu-4
1 41340U 16012D 16196.08876559 .00001107 00000-0 79899-4 0 9998
2 41340 31.0054 98.2007 0014422 323.7798 36.1860 15.00069125 22192
OUFTI-1
1 41458U 16025C 16195.87965156 .00003697 00000-0 21166-3 0 9999
2 41458 98.2096 207.9033 0175310 339.1193 20.2949 15.01244004 11782
e-st@r-II
1 41459U 16025D 16196.47948424 .00003429 00000-0 19174-3 0 9995
2 41459 98.2152 208.5353 0175331 337.0593 22.3432 15.01226916 11874
AAUSAT4
1 41460U 16025E 16196.80664094 .00004649 00000-0 26435-3 0 9995
2 41460 98.2056 208.8898 0174150 335.8304 23.4816 15.01450108 11926
MinXSS
1 41474U 98067HU 16196.82750109 .00036380 00000-0 47486-3 0 9997
2 41474 51.6422 279.1965 0001958 288.5545 71.5235 15.58316215 9246
CADRE
1 41475U 98067HV 16196.80337342 .00047757 00000-0 59278-3 0 9998
2 41475 51.6409 279.0318 0003331 316.8136 43.2596 15.59521929 9248
STMSat 1
1 41476U 98067HW 16196.63469002 .00033050 00000-0 43361-3 0 9996
2 41476 51.6414 280.1562 0001663 292.9702 67.1115 15.58227991 9128
NODES 1
1 41477U 98067HX 16196.64947400 .00024904 00000-0 33829-3 0 9997
2 41477 51.6415 280.2563 0001468 268.6899 91.3925 15.57455538 9129
NODES 2
1 41478U 98067HY 16196.65055676 .00024711 00000-0 33621-3 0 9990
2 41478 51.6411 280.2627 0001439 271.1639 88.9188 15.57416513 9129
NuSat1-LUSEX
1 41557U 16033B 16196.85978381 .00003064 00000-0 12372-3 0 9998
2 41557 97.4962 270.0579 0016593 113.9748 355.9213 15.25433547 6977
NuSat2
1 41558U 16033C 16196.79569218 .00002954 00000-0 11992-3 0 9991
2 41558 97.4986 269.9969 0016186 112.7833 342.2799 15.25292027 6967
Lapan A3
1 41603U 16040E 16196.88420630 .00000560 00000-0 29950-4 0 9999
2 41603 97.5095 255.9122 0013989 163.1193 311.2246 15.19061671 3448
Swayam
1 41607U 16040J 16196.20631847 .00003534 00000-0 17177-3 0 9994
2 41607 97.5074 255.2257 0015416 169.7498 190.4054 15.18988193 3268
/EX
1
0
SB KEPS @ AMSAT $ORB16189.N
2Line Orbital Elements 16189.AMSAT
HR AMSAT ORBITAL ELEMENTS FOR AMATEUR SATELLITES IN NASA FORMAT
FROM WA5QGD FORT WORTH,TX July 7, 2016
BID: ORB16189.N
DECODE 2-LINE ELSETS WITH THE FOLLOWING KEY:
1 AAAAAU 00 0 0 BBBBB.BBBBBBBB .CCCCCCCC 00000-0 00000-0 0 DDDZ
2 AAAAA EEE.EEEE FFF.FFFF GGGGGGG HHH.HHHH III.IIII JJ.JJJJJJJJKKKKKZ
KEY: A-CATALOGNUM B-EPOCHTIME C-DECAY D-ELSETNUM E-INCLINATION F-RAAN
G-ECCENTRICITY H-ARGPERIGEE I-MNANOM J-MNMOTION K-ORBITNUM Z-CHECKSUM
TO ALL RADIO AMATEURS BT
AO-07
1 07530U 74089B 16189.17031405 -.00000049 00000-0 -28291-4 0 9990
2 07530 101.5757 159.4409 0011531 272.8899 155.0251 12.53621905905626
FO-29
1 24278U 96046B 16189.21038762 -.00000037 00000-0 -30468-5 0 9990
2 24278 98.5852 111.8079 0350849 150.6470 211.4888 13.53068692982229
RS-22
1 27939U 03042A 16189.80427647 .00000069 00000-0 20867-4 0 9994
2 27939 97.8881 340.6848 0011810 239.7787 120.2267 14.66418446682842
HO-68
1 36122U 09072B 16189.57985569 -.00000059 00000-0 -43517-4 0 9991
2 36122 100.1396 224.6101 0007152 310.8791 49.1705 13.16334793315292
AO-73
1 39444U 13066AE 16189.15847681 .00000277 00000-0 41396-4 0 9998
2 39444 97.6795 241.8070 0057716 316.7438 42.9250 14.81091391140531
EO-79
1 40025U 14033R 16189.70291692 .00000335 00000-0 42510-4 0 9990
2 40025 97.9267 95.1572 0012817 3.9333 356.1981 14.88037480111258
XW-2A
1 40903U 15049E 16189.83870459 .00002192 00000-0 63539-4 0 9998
2 40903 97.4435 205.2375 0017657 64.1705 62.2237 15.36538260 44721
XW-2C
1 40906U 15049H 16189.74073059 .00000958 00000-0 56793-4 0 9994
2 40906 97.4525 196.3751 0014914 332.9164 81.6264 15.13647833 44110
LILACSAT-2
1 40908U 15049K 16189.89661756 .00000358 00000-0 24175-4 0 9992
2 40908 97.4576 196.4088 0015760 325.1440 79.1383 15.12577338 44118
XW-2E
1 40909U 15049L 16189.74494034 .00001419 00000-0 80197-4 0 9995
2 40909 97.4514 196.6628 0014516 336.2028 71.5247 15.14636881 44134
UO-11
1 14781U 84021B 16189.14391330 .00000097 00000-0 18319-4 0 9997
2 14781 97.7477 240.5360 0007175 245.1708 114.8760 14.82760883739217
LO-19
1 20442U 90005G 16189.03763931 -.00000002 00000-0 15387-4 0 9994
2 20442 98.5438 123.7039 0013003 87.7098 272.5574 14.32821163382198
AO-27
1 22825U 93061C 16189.02693910 -.00000015 00000-0 11764-4 0 9993
2 22825 98.7606 145.3977 0007268 259.0685 100.9679 14.29960128188079
IO-26
1 22826U 93061D 16188.85700207 .00000006 00000-0 19656-4 0 9999
2 22826 098.7549 145.3484 0007822 249.5490 110.4852 14.30285215187968
GO-32
1 25397U 98043D 16188.82034778 -.00000018 00000-0 10929-4 0 9998
2 25397 098.5679 133.2537 0000385 353.3784 006.7390 14.23597342934433
